Regional Weather Roundup
Issued by NWS

Home | Current Version | Previous Version | Graphics & Text | Print | Product List | Glossary On
Versions: 1 2 3 4 5 6 7 8 9 10 11 12 13 14 15 16 17 18 19 20 21 22 23 24 25 26 27 28 29 30 31 32 33 34 35 36 37 38 39 40 41 42 43 44 45 46 47 48 49 50
000
ASUS45 KSLC 010810
RWRUT

UTAH REGIONAL WEATHER ROUNDUP
NATIONAL WEATHER SERVICE SALT LAKE CITY UT
200 AM MDT TUE SEP 01 2015

UTZ001>011-023>025-010900-

NORTHERN UTAH

CITY           SKY/WX    TMP DP  RH WIND       PRES   REMARKS
BRIGHAM CITY   CLEAR     62  40  44 N5        29.97S
HILL AFB       PTCLDY    69  36  29 E15G26    30.00S
LOGAN          CLEAR     56  42  59 CALM      30.00S
OGDEN          CLEAR     68  37  32 S6        29.97F
PROVO AIRPORT  PTCLDY    66  45  45 E8        30.01F
SALT LAKE CITY MOCLDY    73  44  35 S8        29.96S
VERNAL         CLEAR     59  45  59 CALM      30.12F
WENDOVER       CLEAR     66  36  32 CALM      29.95S
HEBER CITY     CLEAR     52  43  71 CALM      30.11S
WEST JORDAN    CLEAR     68  50  52 S9        30.00S

$$

UTZ012>022-026-027-010900-

SOUTHERN/CENTRAL UTAH

CITY           SKY/WX    TMP DP  RH WIND       PRES   REMARKS
BLANDING       CLEAR     62  47  57 CALM      30.26F
BRYCE CANYON   CLOUDY    54  48  80 W3        30.31S
CEDAR CITY     PTCLDY    72  44  36 SE10      30.13R
DELTA          CLEAR     72  36  26 S8        30.02S
HANKSVILLE     PTCLDY    68  48  49 NE3       30.07S
MILFORD        CLEAR     70  41  34 SW13      30.06R
MOAB/CYNLANDS  CLEAR     70  50  49 CALM      30.05S
PRICE          PTCLDY    59  49  69 N9        30.15S
ST GEORGE      MOSUNNY   82  52  34 E18G25    29.96R
KANAB          MOCLDY    64  61  88 CALM      30.19S

$$

REGIONAL REPORTS     COLORADO/ARIZONA

CITY           SKY/WX    TMP DP  RH WIND       PRES   REMARKS
CRAIG, CO      CLEAR     47  43  86 CALM      30.20F
GRAND JUNCTION CLEAR     64  52  64 E5        30.10R
RIFLE          CLEAR     58  51  78 E6        30.17S
MONTROSE       PTCLDY    60  50  69 S5        30.19S
CORTEZ         CLEAR     57  46  66 E6        30.20S
PAGE, AZ       CLEAR     72  53  51 S13       30.09S
GRAND CANYON   PTCLDY    56  54  93 CALM        N/A
KINGMAN        CLEAR     79  50  36 S9        29.99R
FLAGSTAFF      PTCLDY    52  51  97 SW6       30.32S

$$

REGIONAL REPORTS    NEVADA/IDAHO/WYOMING

CITY           SKY/WX    TMP DP  RH WIND       PRES   REMARKS
LAS VEGAS, NV  CLEAR     86  33  15 S7        29.81R
ELY            PTCLDY    67  35  30 S7        30.12R
ELKO           CLEAR     59  29  31 CALM      30.01S
POCATELLO, ID  CLEAR     53  33  46 E6        30.00F
EVANSTON, WY   CLEAR     58  37  45 SE7       30.19F
ROCK SPRINGS   CLEAR     59  40  49 S9        30.17F
KEMMERER       CLEAR     45  30  57 N9        30.20F

$$


USA.gov is the U.S. government's official web portal to all federal, state and local government web resources and services.